Regional Weather Roundup
Issued by NWS

Home | Current Version | Previous Version | Graphics & Text | Print | Product List | Glossary On
Versions: 1 2 3 4 5 6 7 8 9 10 11 12 13 14 15 16 17 18 19 20 21 22 23 24 25 26 27 28 29 30 31 32 33 34 35 36 37 38 39 40 41 42 43 44 45 46 47 48 49 50
000
ASUS43 KIND 310059
RWRIN

WEATHER ROUNDUP FOR INDIANA
NATIONAL WEATHER SERVICE INDIANAPOLIS IN
900 PM EDT SUN AUG 30 2015

NOTE: "FAIR" INDICATES FEW OR NO CLOUDS BELOW 12,000 FEET WITH NO
SIGNIFICANT WEATHER AND/OR OBSTRUCTIONS TO VISIBILITY.

* - STATION DOES NOT REPORT WEATHER SUCH AS PRECIPITATION OR FOG.

+ - STATION NOT QUALITY CONTROLLED BY THE NATIONAL WEATHER SERVICE.
    USE DATA WITH CAUTION...ESPECIALLY DEWPOINT AND RELATIVE
    HUMIDITY OBSERVATIONS.

INZ001>003-010>013-019-020-310200-
NORTHWEST INDIANA

CITY           SKY/WX    TMP DP  RH WIND       PRES   REMARKS
GARY /AIRPORT/ PTCLDY    70  64  83 VRB5      30.04R
KNOX *+        CLEAR     70  68  94 E3        30.02R
MONTICELLO +   MOCLDY    73  73  99 CALM      30.02R

$$

LMZ046-743>745-310200-
SOUTHERN LAKE MICHIGAN

STATION/POSITION TIME  TEMP    WIND        PRES    WAVE
                       AIR SEA DIR/SP/G            HT
                 (UTC) (F)     (DEG/KT/KT) (MB)    (FT)
BURNS HARBOR     0000   70      60/  8/  8 1016.9F
MICHIGAN CITY    0000   69      20/  7/  7   N/A
5NW MICH CITY    0000   69 71   70/  6/  8   N/A     1

$$

INZ004-005-014>016-021>024-310200-
NORTH CENTRAL INDIANA

CITY           SKY/WX    TMP DP  RH WIND       PRES   REMARKS
GOSHEN         LGT RAIN  70  68  93 CALM      30.03R FOG
SOUTH BEND     CLEAR     67  64  90 N3        30.04R
WARSAW +       CLEAR     70  68  94 CALM      30.04R FOG

$$

INZ006>009-017-018-025>027-310200-
NORTHEAST INDIANA

CITY           SKY/WX    TMP DP  RH WIND       PRES   REMARKS
ANGOLA *+      CLEAR     73  70  88 CALM      30.04R
FORT WAYNE     PTCLDY    74  67  78 CALM      30.04R

$$

INZ028-029-035-036-043>045-051>053-310200-
WEST CENTRAL INDIANA

CITY           SKY/WX    TMP DP  RH WIND       PRES   REMARKS
GREENCASTLE +  MOCLDY    72  64  78 CALM      30.05R
LAFAYETTE      PTCLDY    75  69  81 CALM      30.02R
TERRE HAUTE    CLEAR     75  67  76 SE8       30.03R

$$

INZ030>032-037>040-046>048-054>057-064-065-310200-
CENTRAL INDIANA

CITY           SKY/WX    TMP DP  RH WIND       PRES   REMARKS
COLUMBUS       MOCLDY    72  66  83 CALM      30.05R
FRANKFORT +    CLEAR     72  72 100 CALM      30.06R
GREENWOOD *+   MOCLDY    75  63  64 SW3       30.06R
INDIANAPOLIS   MOCLDY    76  64  66 S7        30.04R
-EAGLE CREEK   PTCLDY    78  65  63 SW3       30.04R
KOKOMO *+      CLEAR     75  55  50 SW3       30.04R
MT COMFORT *+  CLEAR     75  64  69 SW6       30.06R
SHELBYVILLE    CLOUDY    77  67  71 SW5       30.05R

$$

INZ033-034-041-042-049-050-058-059-310200-
EAST CENTRAL INDIANA

CITY           SKY/WX    TMP DP  RH WIND       PRES   REMARKS
MUNCIE         CLEAR     73  64  73 CALM      30.05R

$$

INZ060-061-067>069-081>083-085>088-310200-
SOUTHWEST INDIANA

CITY           SKY/WX    TMP DP  RH WIND       PRES   REMARKS
EVANSVILLE     MOCLDY    78  69  73 S5        30.04R
HUNTINGBURG *+ PTCLDY    77  68  73 S6        30.05R

$$

INZ062-063-066-070>080-084-089>092-310200-
SOUTH CENTRAL AND SOUTHEAST INDIANA

CITY           SKY/WX    TMP DP  RH WIND       PRES   REMARKS
BLOOMINGTON    MOCLDY    73  69  87 CALM      30.06R
MADISON *+     PTCLDY    73  68  83 SE3       30.09R
SEYMOUR +      MOCLDY    77  66  69 SW9       30.06R

$$




USA.gov is the U.S. government's official web portal to all federal, state and local government web resources and services.